星链-30085 (STARLINK-30085 )

导读

STARLINK-30085是美国SpaceX公司星链(Starlink)互联网卫星项目的成员,于2023年5月19日8时发射升空,属于Starlink Group组网卫星,旨在为全球提供高速低延迟卫星互联网服务,该卫星在近地轨道运行,是美国星链计划大规模扩张低轨星座的一环。

基本信息
目录编号:
56709
目录名称:
STARLINK-30085
国际标识:
2023-067X
轨道中心:
EARTH
卫星名称:
星链-30085
卫星全名:
星链-30085 (STARLINK-30085 )
卫星状态:
在轨 (已飞行1211 天)
发射日期:
2023-05-19 UTC
国别 :
美国 (US)
星等 :
--
该卫星已列入 空间交会检测服务 Space Conjunction Data Service (SCDS) ,当前飞行风险评估等级: 高风险
轨道信息
数据来源 国际轨道数据 AOE轨道数据
星历时间 2026-09-11T12:37:19+0800
8小时前
查看轨道信息
2026-09-10T12:00:00+0800
1天前
查看轨道信息
半长轴 6861.212km 6861.188km
偏心率 0.0001509 0.0001707
轨道倾角 43.004° 43.001°
近地点辐角 271.482° 256.157°
升交点赤经 303.150° 308.945°
平近点角 88.586° 215.516°
近地点 482.039km 481.879km
远地点 484.111km 484.223km
周期 94.267分钟 94.267分钟
每日圈数 15.275715 15.275796
详细信息
固有亮度:
5
最大亮度:
0.3
卫星平台:
Starlink v2.0 mini
覆盖范围:
全球
运营商:
太空探索技术公司
运营商所在国:
美国
制造商(研发单位):
太空探索技术公司
制造商所在国:
美国
使用方式:
暂无
卫星简介
星链(Starlink)计划是由太空探索技术公司(SpaceX)提出的一个巨型低轨卫星互联网星座项目,计划在2019年至2024年间在太空搭建由约1.2万颗卫星组成的“星链”网络,其中1584颗将部署在地球上空550千米处的近地轨道,并从2020年开始工作。该卫星仍在工作。
2D轨道图
3D轨道图
轨道高度分析图
轨道倾角分析图
轨道综合分析图
查看轨道综合分析图
交会数据列表
事件ID 空间交会对象 最接近时刻(TCA) 交会距离 交会风险概率(CRP) 交会风险指数(CRI) 操作
CDM_260912-010805-670906-213423
2026-09-12T
01:08:36+0000
0.066 km
近距离
1.323555E-3 极高风险 0.97
CDM_260912-160305-670906-213422
2026-09-12T
16:03:03+0000
1.048 km
极远距离
1.713176E-5 中风险 0.6
CDM_260911-063205-670906-792923
2026-09-11T
06:32:31+0000
0.886 km
远距离
1.160223E-5 中风险 0.56
CDM_260912-173705-670906-213421
2026-09-12T
17:37:12+0000
1.980 km
极远距离
2.251247E-6 低风险 0.42
CDM_260911-233405-670906-213423
2026-09-11T
23:34:27+0000
2.094 km
极远距离
1.964764E-6 低风险 0.41
CDM_260912-024205-670906-213421
2026-09-12T
02:42:45+0000
2.261 km
极远距离
1.658649E-6 低风险 0.39
CDM_260911-102705-670906-792921
2026-09-11T
10:27:54+0000
1.671 km
极远距离
1.490535E-6 低风险 0.38
CDM_260911-085305-670906-792923
2026-09-11T
08:53:44+0000
2.389 km
极远距离
6.739749E-7 极低风险 0.32
CDM_260911-080605-670906-792921
2026-09-11T
08:06:40+0000
2.934 km
极远距离
5.107046E-7 极低风险 0.29
与全量物体交会距离演化趋势
与全量物体交会风险概率演化趋势